Weather History for Moriarty, NM

Change the Weather History Date:

Friday, March 8, 2013

  Actual Average (KABQ) Record (KABQ)
Temperature  
Mean Temperature 42 °F 46 °F  
Max Temperature 60 °F 58 °F 78 °F (1904)
Min Temperature 25 °F 34 °F 13 °F (1917)
Degree Days  
Heating Degree Days 22 19  
Month to date heating degree days 155  
Since 1 July heating degree days 3458  
Cooling Degree Days 0 0  
Month to date cooling degree days 0  
Year to date cooling degree days 0  
Moisture  
Dew Point 28 °F    
Average Humidity 62    
Maximum Humidity 91    
Minimum Humidity 21    
Precipitation  
Precipitation 0.04 in 0.02 in 0.48 in (1975)
Month to date precipitation 0.14  
Year to date precipitation 1.00  
Snow  
Snow 0.00 in - - ()
Month to date snowfall  
Since 1 July snowfall  
Snow Depth -    
Sea Level Pressure  
Sea Level Pressure 29.93 in    
Wind  
Wind Speed 8 mph (SSW)    
Max Wind Speed 36 mph    
Max Gust Speed 40 mph    
Visibility 10 miles    
Events Rain , Thunderstorm    
T = Trace of Precipitation, MM = Missing Value Source: NWS Daily Summary

Daily Weather History Graph

Daily Weather History Graph

Search for Another Location

Airport:

Trip Planner

Search our weather history database for the weather conditions in past years. The results will help you decide how hot, cold, wet, or windy it might be!

Date:

Astronomy

Mar. 08, 2013 Rise Set
Actual Time 6:23 AM MST 6:06 PM MST
Civil Twilight 5:58 AM MST 6:31 PM MST
Nautical Twilight 5:29 AM MST 7:00 PM MST
Astronomical Twilight 4:59 AM MST 7:30 PM MST
Moon 4:03 AM MST (3/8) 3:09 PM MST (3/8)
Length of Visible Light 12h 32m
Length of Day
11h 42m
Waning Crescent, 11% of the Moon is Illuminated
Mar 8
Waning Crescent
Mar 11
New
Mar 19
First Quarter
Mar 27
Full
Apr 2
Last Quarter

Hourly Weather History & Observations

Time (MST) Temp. Windchill Dew Point Humidity Pressure Visibility Wind Dir Wind Speed Gust Speed Precip Events Conditions
12:15 AM 42.1 °F 37.1 °F 17.6 °F 37% 30.04 in 10.0 mi SSE 8.1 mph - N/A   Clear
12:35 AM 40.5 °F 36.5 °F 18.3 °F 41% 30.04 in 10.0 mi South 5.8 mph - N/A   Clear
12:55 AM 40.1 °F 36.9 °F 18.0 °F 41% 30.04 in 10.0 mi South 4.6 mph - N/A   Clear
1:15 AM 39.7 °F - 18.1 °F 42% 30.02 in 10.0 mi Calm Calm - N/A   Clear
1:35 AM 37.6 °F 35.1 °F 18.5 °F 46% 30.01 in 10.0 mi SW 3.5 mph - N/A   Clear
1:55 AM 32.2 °F 25.8 °F 18.0 °F 56% 30.00 in 10.0 mi NE 6.9 mph - N/A   Clear
2:15 AM 33.3 °F 28.9 °F 18.5 °F 55% 30.00 in 10.0 mi NE 4.6 mph - N/A   Clear
2:35 AM 30.2 °F 25.4 °F 18.1 °F 61% 29.99 in 10.0 mi North 4.6 mph - N/A   Clear
2:55 AM 30.2 °F 25.4 °F 18.3 °F 61% 29.98 in 10.0 mi North 4.6 mph - N/A   Clear
3:15 AM 30.2 °F 25.4 °F 18.0 °F 60% 29.98 in 10.0 mi South 4.6 mph - N/A   Clear
3:35 AM 28.0 °F 22.8 °F 18.1 °F 66% 29.99 in 10.0 mi SSW 4.6 mph - N/A   Clear
3:55 AM 25.7 °F 19.0 °F 17.6 °F 71% 29.99 in 10.0 mi SSW 5.8 mph - N/A   Clear
4:15 AM 27.5 °F - 17.6 °F 66% 29.99 in 10.0 mi Calm Calm - N/A   Scattered Clouds
4:35 AM 29.5 °F - 18.3 °F 63% 30.00 in 10.0 mi Calm Calm - N/A   Overcast
4:55 AM 30.6 °F - 18.9 °F 62% 30.00 in 10.0 mi Calm Calm - N/A   Mostly Cloudy
5:15 AM 29.8 °F - 18.3 °F 62% 30.00 in 10.0 mi Calm Calm - N/A   Scattered Clouds
5:35 AM 30.4 °F 25.6 °F 19.4 °F 64% 30.00 in 10.0 mi South 4.6 mph - N/A   Mostly Cloudy
5:55 AM 30.4 °F 25.6 °F 19.4 °F 64% 30.00 in 10.0 mi SW 4.6 mph - N/A   Scattered Clouds
6:15 AM 27.5 °F - 18.9 °F 70% 30.00 in 10.0 mi Calm Calm - N/A   Scattered Clouds
6:35 AM 27.1 °F 23.2 °F 19.0 °F 72% 30.00 in 10.0 mi SE 3.5 mph - N/A   Mostly Cloudy
6:55 AM 27.5 °F - 19.6 °F 72% 30.00 in 10.0 mi Calm Calm - N/A   Scattered Clouds
7:15 AM 30.6 °F - 21.4 °F 69% 30.00 in 10.0 mi Calm Calm - N/A   Mostly Cloudy
7:35 AM 32.2 °F - 21.7 °F 65% 30.00 in 10.0 mi Calm Calm - N/A   Scattered Clouds
7:55 AM 36.1 °F - 22.8 °F 58% 30.00 in 10.0 mi Calm Calm - N/A   Mostly Cloudy
8:15 AM 40.5 °F - 22.5 °F 49% 30.00 in 10.0 mi Calm Calm - N/A   Mostly Cloudy
8:35 AM 45.7 °F - 23.2 °F 41% 29.99 in 10.0 mi Calm Calm - N/A   Scattered Clouds
8:55 AM 51.3 °F - 19.4 °F 29% 29.99 in 10.0 mi SSE 8.1 mph - N/A   Clear
9:15 AM 53.4 °F - 18.3 °F 25% 29.98 in 10.0 mi SSE 8.1 mph - N/A   Clear
9:35 AM 54.5 °F - 17.6 °F 23% 29.98 in 10.0 mi South 6.9 mph - N/A   Clear
9:55 AM 56.8 °F - 18.5 °F 22% 29.98 in 10.0 mi South 10.4 mph - N/A   Clear
10:15 AM 58.1 °F - 17.8 °F 21% 29.97 in 10.0 mi South 13.8 mph 17.3 mph N/A   Clear
10:35 AM 57.2 °F - 18.5 °F 22% 29.96 in 10.0 mi South 17.3 mph 24.2 mph N/A   Clear
10:55 AM 57.6 °F - 19.4 °F 23% 29.96 in 10.0 mi SSW 18.4 mph 26.5 mph N/A   Scattered Clouds
11:15 AM 57.4 °F - 19.9 °F 23% 29.96 in 10.0 mi SW 13.8 mph 20.7 mph N/A   Overcast
11:35 AM 59.0 °F - 21.9 °F 24% 29.94 in 10.0 mi SSW 18.4 mph 23.0 mph N/A   Overcast
11:55 AM 58.3 °F - 22.8 °F 25% 29.94 in 10.0 mi SSW 19.6 mph 33.4 mph N/A   Mostly Cloudy
12:15 PM 55.9 °F - 27.0 °F 33% 29.94 in 10.0 mi South 28.8 mph 34.5 mph N/A   Overcast
12:35 PM 55.2 °F - 28.2 °F 36% 29.93 in 10.0 mi SSW 20.7 mph - N/A   Mostly Cloudy
12:55 PM 57.4 °F - 29.5 °F 35% 29.90 in 10.0 mi SSW 21.9 mph 26.5 mph N/A   Scattered Clouds
1:15 PM 59.9 °F - 28.0 °F 30% 29.89 in 10.0 mi SSW 21.9 mph 31.1 mph N/A   Clear
1:35 PM 60.4 °F - 28.0 °F 29% 29.86 in 10.0 mi SSW 26.5 mph 33.4 mph N/A   Scattered Clouds
1:55 PM 59.4 °F - 28.2 °F 31% 29.85 in 10.0 mi South 28.8 mph 39.1 mph N/A   Scattered Clouds
2:15 PM 56.7 °F - 29.3 °F 35% 29.86 in 10.0 mi South 23.0 mph 31.1 mph N/A Thunderstorm Mostly Cloudy
2:35 PM 52.0 °F - 34.2 °F 51% 29.88 in 10.0 mi West 35.7 mph 40.3 mph N/A   Overcast
2:55 PM 42.3 °F 33.8 °F 39.0 °F 88% 29.92 in 5.0 mi West 18.4 mph 34.5 mph N/A Rain Light Rain
3:15 PM 44.6 °F 38.1 °F 41.0 °F 87% 29.90 in 10.0 mi West 13.8 mph 19.6 mph N/A Rain Light Rain
3:35 PM 44.6 °F 38.1 °F 38.7 °F 80% 29.90 in 10.0 mi West 13.8 mph 18.4 mph N/A Rain Light Rain
3:55 PM 44.6 °F 42.2 °F 39.9 °F 84% 29.90 in 10.0 mi SW 4.6 mph - N/A Rain Light Rain
4:15 PM 45.9 °F 40.8 °F 39.9 °F 80% 29.89 in 10.0 mi South 10.4 mph - N/A   Overcast
4:35 PM 45.1 °F 39.1 °F 39.4 °F 80% 29.87 in 10.0 mi South 12.7 mph - N/A   Overcast
4:55 PM 46.4 °F 40.4 °F 41.0 °F 81% 29.86 in 10.0 mi SSE 13.8 mph - N/A Rain Light Rain
5:15 PM 45.5 °F 38.9 °F 39.9 °F 81% 29.86 in 10.0 mi SSE 15.0 mph - N/A   Scattered Clouds
5:35 PM 44.2 °F 37.0 °F 39.6 °F 84% 29.86 in 10.0 mi South 16.1 mph - N/A   Scattered Clouds
5:55 PM 43.7 °F 38.6 °F 39.7 °F 86% 29.86 in 10.0 mi SSW 9.2 mph - N/A   Mostly Cloudy
6:15 PM 43.2 °F 39.0 °F 39.6 °F 87% 29.84 in 10.0 mi South 6.9 mph - N/A   Mostly Cloudy
6:35 PM 42.1 °F 36.6 °F 39.0 °F 89% 29.84 in 10.0 mi South 9.2 mph - N/A   Scattered Clouds
6:55 PM 41.2 °F 35.0 °F 38.7 °F 91% 29.84 in 10.0 mi SSE 10.4 mph - N/A   Scattered Clouds
7:15 PM 42.1 °F 36.1 °F 39.4 °F 90% 29.84 in 10.0 mi SSE 10.4 mph - N/A   Mostly Cloudy
7:35 PM 42.8 °F 35.1 °F 39.6 °F 88% 29.84 in 10.0 mi SSE 16.1 mph - N/A Thunderstorm Thunderstorm
7:55 PM 43.3 °F 36.1 °F 38.7 °F 84% 29.84 in 10.0 mi South 15.0 mph 19.6 mph N/A   Overcast
8:15 PM 43.3 °F 35.5 °F 39.4 °F 86% 29.86 in 10.0 mi WNW 17.3 mph 23.0 mph N/A Rain Light Rain
8:35 PM 39.9 °F 29.2 °F 35.4 °F 84% 29.87 in 5.0 mi WSW 25.3 mph 34.5 mph 0.02 in Rain , Thunderstorm Thunderstorms and Rain
8:55 PM 39.2 °F 33.6 °F 35.2 °F 86% 29.84 in 10.0 mi SW 8.1 mph - 0.03 in   Overcast
9:15 PM 39.4 °F 33.2 °F 36.1 °F 88% 29.84 in 10.0 mi SE 9.2 mph - N/A   Overcast
9:35 PM 38.8 °F 33.8 °F 35.8 °F 89% 29.84 in 10.0 mi SE 6.9 mph - N/A   Overcast
9:55 PM 39.9 °F 33.9 °F 36.5 °F 88% 29.84 in 10.0 mi SSE 9.2 mph - N/A   Overcast
10:15 PM 40.3 °F 34.9 °F 36.5 °F 86% 29.84 in 10.0 mi South 8.1 mph - N/A   Overcast
10:35 PM 40.5 °F 34.6 °F 37.0 °F 88% 29.83 in 10.0 mi South 9.2 mph - N/A   Light Drizzle
10:55 PM 40.3 °F 31.9 °F 35.6 °F 83% 29.84 in 10.0 mi SW 16.1 mph 23.0 mph N/A Rain Light Rain
11:15 PM 38.5 °F 31.6 °F 34.7 °F 86% 29.83 in 5.0 mi SW 10.4 mph - 0.01 in Rain Rain
11:35 PM 38.5 °F 34.1 °F 35.1 °F 87% 29.82 in 10.0 mi SSW 5.8 mph - 0.01 in Rain Light Rain
11:55 PM 38.7 °F 32.9 °F 36.0 °F 90% 29.81 in 10.0 mi WSW 8.1 mph - 0.01 in Rain Rain